Location: Hanover
(52.3667°N, 9.7167°E)
Time: 02:59:14
(UTC+02:00)

ARIANE 6 FM1 Upper Stage - Pass Details

Date: 20 September 2024
Orbit: 564 x 594 km, 62.0° (Epoch: 06 October)

Event Time Altitude Azimuth Distance (km) Brightness Sun altitude
Rises 21:52:55 0° 221° (SW) 2,780 6.3 -22.4°
Reaches altitude 10° 21:55:09 10° 220° (SW) 1,891 5.4 -22.7°
Enters shadow 21:58:00 41° 209° (SSW) 848 3.4 -23.0°
